Time,TemperatureF,DewpointF,PressureIn,WindDirection,WindDirectionDegrees,WindSpeedMPH,WindSpeedGustMPH,Humidity,HourlyPrecipIn,Conditions,Clouds,dailyrainin,SoftwareType,DateUTC
2013-02-12 00:00:00,52.7,49.8,30.05,NE,47,0.0,0.0,90,0.00,,,0.11,Wunderground v.1.15,2013-02-12 05:00:00,
2013-02-12 00:06:00,52.6,50.0,30.05,NE,47,0.0,0.0,91,0.00,,,0.00,Wunderground v.1.15,2013-02-12 05:06:00,
2013-02-12 00:08:00,52.6,50.0,30.05,NE,47,0.0,0.0,91,0.00,,,0.00,Wunderground v.1.15,2013-02-12 05:08:00,
2013-02-12 00:14:00,52.5,49.9,30.05,NNE,15,0.0,1.0,91,0.00,,,0.00,Wunderground v.1.15,2013-02-12 05:14:00,
2013-02-12 00:20:00,52.4,49.8,30.05,North,360,0.0,0.0,91,0.00,,,0.00,Wunderground v.1.15,2013-02-12 05:20:00,
2013-02-12 00:24:00,52.3,49.8,30.06,North,360,0.0,0.0,91,0.00,,,0.00,Wunderground v.1.15,2013-02-12 05:24:00,
2013-02-12 00:30:00,52.2,49.9,30.06,NE,50,0.0,0.0,92,0.00,,,0.00,Wunderground v.1.15,2013-02-12 05:30:00,
2013-02-12 00:36:00,52.2,49.9,30.07,North,8,0.0,1.0,92,0.00,,,0.00,Wunderground v.1.15,2013-02-12 05:36:00,
2013-02-12 00:42:00,52.3,50.0,30.07,North,4,1.0,4.0,92,0.00,,,0.00,Wunderground v.1.15,2013-02-12 05:42:00,
2013-02-12 00:48:00,52.4,50.1,30.06,North,6,1.0,4.0,92,0.00,,,0.00,Wunderground v.1.15,2013-02-12 05:48:00,
2013-02-12 00:54:00,52.5,50.2,30.07,ENE,62,1.0,3.0,92,0.00,,,0.00,Wunderground v.1.15,2013-02-12 05:54:00,
2013-02-12 01:00:00,52.7,50.4,30.07,ENE,74,2.0,2.0,92,0.00,,,0.00,Wunderground v.1.15,2013-02-12 06:00:00,
2013-02-12 01:06:00,52.7,50.4,30.08,NE,40,1.0,3.0,92,0.00,,,0.00,Wunderground v.1.15,2013-02-12 06:06:00,
2013-02-12 01:12:00,52.8,50.5,30.08,NNE,33,2.0,3.0,92,0.00,,,0.00,Wunderground v.1.15,2013-02-12 06:12:00,
2013-02-12 01:18:00,52.8,50.2,30.07,NNE,17,1.0,3.0,91,0.00,,,0.00,Wunderground v.1.15,2013-02-12 06:18:00,
2013-02-12 01:24:00,52.7,50.1,30.07,East,81,1.0,1.0,91,0.00,,,0.00,Wunderground v.1.15,2013-02-12 06:24:00,
2013-02-12 01:30:00,52.7,50.4,30.08,NE,36,2.0,2.0,92,0.00,,,0.00,Wunderground v.1.15,2013-02-12 06:30:00,
2013-02-12 01:36:00,52.7,50.1,30.07,East,81,2.0,3.0,91,0.00,,,0.00,Wunderground v.1.15,2013-02-12 06:36:00,
2013-02-12 01:42:00,52.6,50.0,30.07,ENE,71,1.0,1.0,91,0.00,,,0.00,Wunderground v.1.15,2013-02-12 06:42:00,
2013-02-12 01:48:00,52.3,49.8,30.07,ENE,68,0.0,1.0,91,0.00,,,0.00,Wunderground v.1.15,2013-02-12 06:48:00,
2013-02-12 01:54:00,52.2,49.9,30.06,ENE,74,0.0,1.0,92,0.00,,,0.00,Wunderground v.1.15,2013-02-12 06:54:00,
2013-02-12 02:00:00,52.1,49.8,30.06,ENE,74,0.0,0.0,92,0.00,,,0.00,Wunderground v.1.15,2013-02-12 07:00:00,
2013-02-12 02:06:00,51.9,49.4,30.06,ENE,74,0.0,0.0,91,0.00,,,0.00,Wunderground v.1.15,2013-02-12 07:06:00,
2013-02-12 02:12:00,51.6,49.4,30.06,ENE,74,0.0,0.0,92,0.00,,,0.00,Wunderground v.1.15,2013-02-12 07:12:00,
2013-02-12 02:18:00,51.3,49.1,30.05,ENE,69,0.0,0.0,92,0.00,,,0.00,Wunderground v.1.15,2013-02-12 07:18:00,
2013-02-12 02:24:00,51.1,48.9,30.06,ENE,69,0.0,0.0,92,0.00,,,0.00,Wunderground v.1.15,2013-02-12 07:24:00,
2013-02-12 02:30:00,50.7,48.7,30.05,ENE,69,0.0,0.0,93,0.00,,,0.00,Wunderground v.1.15,2013-02-12 07:30:00,
2013-02-12 02:36:00,50.4,48.5,30.06,ENE,69,0.0,0.0,93,0.00,,,0.00,Wunderground v.1.15,2013-02-12 07:36:00,
2013-02-12 02:42:00,50.1,48.2,30.06,ENE,69,0.0,0.0,93,0.00,,,0.00,Wunderground v.1.15,2013-02-12 07:42:00,
2013-02-12 02:48:00,49.8,47.9,30.06,ENE,69,0.0,0.0,93,0.00,,,0.00,Wunderground v.1.15,2013-02-12 07:48:00,
2013-02-12 02:54:00,49.5,47.6,30.06,ENE,69,0.0,0.0,93,0.00,,,0.00,Wunderground v.1.15,2013-02-12 07:54:00,
2013-02-12 03:00:00,49.1,47.4,30.06,ENE,69,0.0,0.0,94,0.00,,,0.00,Wunderground v.1.15,2013-02-12 08:00:00,
2013-02-12 03:06:00,48.9,47.2,30.06,ENE,69,0.0,0.0,94,0.00,,,0.00,Wunderground v.1.15,2013-02-12 08:06:00,
2013-02-12 03:12:00,48.7,47.1,30.07,ENE,69,0.0,0.0,94,0.00,,,0.00,Wunderground v.1.15,2013-02-12 08:12:00,
2013-02-12 03:18:00,48.6,47.0,30.07,ENE,69,0.0,0.0,94,0.00,,,0.00,Wunderground v.1.15,2013-02-12 08:18:00,
2013-02-12 03:24:00,48.4,47.0,30.07,ENE,69,0.0,0.0,95,0.00,,,0.00,Wunderground v.1.15,2013-02-12 08:24:00,
2013-02-12 03:30:00,48.3,46.7,30.07,ENE,69,0.0,0.0,94,0.00,,,0.00,Wunderground v.1.15,2013-02-12 08:30:00,
2013-02-12 03:36:00,48.1,46.7,30.06,ENE,69,0.0,0.0,95,0.00,,,0.00,Wunderground v.1.15,2013-02-12 08:36:00,
2013-02-12 03:42:00,48.1,46.7,30.05,ENE,69,0.0,0.0,95,0.00,,,0.00,Wunderground v.1.15,2013-02-12 08:42:00,
2013-02-12 03:48:00,47.9,46.5,30.05,ENE,69,0.0,0.0,95,0.00,,,0.00,Wunderground v.1.15,2013-02-12 08:48:00,
2013-02-12 03:54:00,47.8,46.4,30.05,ENE,69,0.0,0.0,95,0.00,,,0.00,Wunderground v.1.15,2013-02-12 08:54:00,
2013-02-12 04:00:00,47.6,46.2,30.05,ENE,69,0.0,0.0,95,0.00,,,0.00,Wunderground v.1.15,2013-02-12 09:00:00,
2013-02-12 04:06:00,47.2,45.6,30.05,ENE,69,0.0,0.0,94,0.00,,,0.00,Wunderground v.1.15,2013-02-12 09:06:00,
2013-02-12 04:12:00,46.9,45.3,30.05,ENE,69,0.0,0.0,94,0.00,,,0.00,Wunderground v.1.15,2013-02-12 09:12:00,
2013-02-12 04:18:00,46.5,44.9,30.06,ENE,69,0.0,0.0,94,0.00,,,0.00,Wunderground v.1.15,2013-02-12 09:18:00,
2013-02-12 04:24:00,46.1,44.5,30.06,ENE,69,0.0,0.0,94,0.00,,,0.00,Wunderground v.1.15,2013-02-12 09:24:00,
2013-02-12 04:30:00,45.7,44.1,30.06,ENE,69,0.0,0.0,94,0.00,,,0.00,Wunderground v.1.15,2013-02-12 09:30:00,
2013-02-12 04:36:00,45.4,43.8,30.05,ENE,69,0.0,0.0,94,0.00,,,0.00,Wunderground v.1.15,2013-02-12 09:36:00,
2013-02-12 04:42:00,45.5,44.2,30.05,ENE,69,0.0,0.0,95,0.00,,,0.00,Wunderground v.1.15,2013-02-12 09:42:00,
2013-02-12 04:48:00,45.6,44.5,30.06,ENE,69,0.0,0.0,96,0.00,,,0.00,Wunderground v.1.15,2013-02-12 09:48:00,
2013-02-12 04:54:00,45.8,44.7,30.06,ENE,69,0.0,0.0,96,0.00,,,0.00,Wunderground v.1.15,2013-02-12 09:54:00,
2013-02-12 05:00:00,46.3,45.2,30.06,ENE,69,0.0,0.0,96,0.00,,,0.00,Wunderground v.1.15,2013-02-12 10:00:00,
2013-02-12 05:06:00,46.3,45.5,30.06,ENE,69,0.0,0.0,97,0.00,,,0.00,Wunderground v.1.15,2013-02-12 10:06:00,
2013-02-12 05:12:00,46.4,45.6,30.07,ENE,69,0.0,0.0,97,0.00,,,0.00,Wunderground v.1.15,2013-02-12 10:12:00,
2013-02-12 05:18:00,46.4,45.6,30.08,ENE,69,0.0,0.0,97,0.00,,,0.00,Wunderground v.1.15,2013-02-12 10:18:00,
2013-02-12 05:24:00,46.1,45.0,30.08,ENE,69,0.0,0.0,96,0.00,,,0.00,Wunderground v.1.15,2013-02-12 10:24:00,
2013-02-12 05:30:00,46.0,44.9,30.08,ENE,69,0.0,0.0,96,0.00,,,0.00,Wunderground v.1.15,2013-02-12 10:30:00,
2013-02-12 05:36:00,46.1,45.0,30.08,ENE,69,0.0,0.0,96,0.00,,,0.00,Wunderground v.1.15,2013-02-12 10:36:00,
2013-02-12 05:42:00,46.0,44.9,30.08,ENE,69,0.0,0.0,96,0.00,,,0.00,Wunderground v.1.15,2013-02-12 10:42:00,
2013-02-12 05:48:00,45.8,44.7,30.08,ENE,69,0.0,0.0,96,0.00,,,0.00,Wunderground v.1.15,2013-02-12 10:48:00,
2013-02-12 05:54:00,45.6,44.5,30.08,ENE,69,0.0,0.0,96,0.00,,,0.00,Wunderground v.1.15,2013-02-12 10:54:00,
2013-02-12 06:00:00,45.4,44.3,30.09,ENE,69,0.0,0.0,96,0.00,,,0.00,Wunderground v.1.15,2013-02-12 11:00:00,
2013-02-12 06:06:00,45.1,44.0,30.09,ENE,69,0.0,0.0,96,0.00,,,0.00,Wunderground v.1.15,2013-02-12 11:06:00,
2013-02-12 06:12:00,44.9,43.8,30.09,ENE,69,0.0,0.0,96,0.00,,,0.00,Wunderground v.1.15,2013-02-12 11:12:00,
2013-02-12 06:18:00,44.7,43.6,30.09,ENE,69,0.0,0.0,96,0.00,,,0.00,Wunderground v.1.15,2013-02-12 11:18:00,
2013-02-12 06:24:00,44.6,43.5,30.09,ENE,69,0.0,0.0,96,0.00,,,0.00,Wunderground v.1.15,2013-02-12 11:24:00,
2013-02-12 06:30:00,44.6,43.5,30.10,ENE,69,0.0,0.0,96,0.00,,,0.00,Wunderground v.1.15,2013-02-12 11:30:00,
2013-02-12 06:36:00,44.5,43.4,30.10,ENE,69,0.0,0.0,96,0.00,,,0.00,Wunderground v.1.15,2013-02-12 11:36:00,
2013-02-12 06:42:00,44.4,43.3,30.09,ENE,69,0.0,0.0,96,0.00,,,0.00,Wunderground v.1.15,2013-02-12 11:42:00,
2013-02-12 06:48:00,44.5,43.4,30.09,ENE,69,0.0,0.0,96,0.00,,,0.00,Wunderground v.1.15,2013-02-12 11:48:00,
2013-02-12 06:54:00,44.5,43.4,30.09,ENE,69,0.0,0.0,96,0.00,,,0.00,Wunderground v.1.15,2013-02-12 11:54:00,
2013-02-12 07:00:00,44.5,43.4,30.09,ENE,69,0.0,0.0,96,0.00,,,0.00,Wunderground v.1.15,2013-02-12 12:00:00,
2013-02-12 07:06:00,44.5,43.7,30.10,ENE,69,0.0,0.0,97,0.00,,,0.00,Wunderground v.1.15,2013-02-12 12:06:00,
2013-02-12 07:12:00,44.5,43.7,30.11,ENE,69,0.0,0.0,97,0.00,,,0.00,Wunderground v.1.15,2013-02-12 12:12:00,
2013-02-12 07:18:00,44.7,43.9,30.10,ENE,69,0.0,0.0,97,0.00,,,0.00,Wunderground v.1.15,2013-02-12 12:18:00,
2013-02-12 07:24:00,44.7,43.9,30.09,ENE,69,0.0,0.0,97,0.00,,,0.00,Wunderground v.1.15,2013-02-12 12:24:00,
2013-02-12 07:30:00,44.6,43.8,30.10,ENE,69,0.0,0.0,97,0.00,,,0.00,Wunderground v.1.15,2013-02-12 12:30:00,
2013-02-12 07:36:00,44.3,43.2,30.10,ENE,69,0.0,0.0,96,0.00,,,0.00,Wunderground v.1.15,2013-02-12 12:36:00,
2013-02-12 07:42:00,44.1,43.0,30.11,ENE,69,0.0,0.0,96,0.00,,,0.00,Wunderground v.1.15,2013-02-12 12:42:00,
2013-02-12 07:48:00,44.0,42.9,30.11,ENE,69,0.0,0.0,96,0.00,,,0.00,Wunderground v.1.15,2013-02-12 12:48:00,
2013-02-12 07:54:00,44.0,42.9,30.11,ENE,69,0.0,0.0,96,0.00,,,0.00,Wunderground v.1.15,2013-02-12 12:54:00,
2013-02-12 08:00:00,44.2,43.4,30.11,ENE,69,0.0,0.0,97,0.00,,,0.00,Wunderground v.1.15,2013-02-12 13:00:00,
2013-02-12 08:06:00,44.9,44.1,30.11,ENE,69,0.0,0.0,97,0.00,,,0.00,Wunderground v.1.15,2013-02-12 13:06:00,
2013-02-12 08:12:00,45.6,44.8,30.12,ENE,69,0.0,0.0,97,0.00,,,0.00,Wunderground v.1.15,2013-02-12 13:12:00,
2013-02-12 08:18:00,46.1,45.3,30.14,ENE,69,0.0,0.0,97,0.00,,,0.00,Wunderground v.1.15,2013-02-12 13:18:00,
2013-02-12 08:24:00,46.5,45.7,30.14,ENE,69,0.0,0.0,97,0.00,,,0.00,Wunderground v.1.15,2013-02-12 13:24:00,
2013-02-12 08:30:00,46.8,46.0,30.14,ENE,69,0.0,0.0,97,0.00,,,0.00,Wunderground v.1.15,2013-02-12 13:30:00,
2013-02-12 08:36:00,46.9,46.1,30.14,ENE,69,0.0,0.0,97,0.00,,,0.00,Wunderground v.1.15,2013-02-12 13:36:00,
2013-02-12 08:42:00,47.0,46.2,30.14,ENE,69,0.0,0.0,97,0.00,,,0.00,Wunderground v.1.15,2013-02-12 13:42:00,
2013-02-12 08:48:00,46.9,46.1,30.15,ENE,69,0.0,0.0,97,0.00,,,0.00,Wunderground v.1.15,2013-02-12 13:48:00,
2013-02-12 08:54:00,47.0,46.2,30.14,ENE,69,0.0,0.0,97,0.00,,,0.00,Wunderground v.1.15,2013-02-12 13:54:00,
2013-02-12 09:00:00,47.2,46.4,30.15,ENE,69,0.0,0.0,97,0.00,,,0.00,Wunderground v.1.15,2013-02-12 14:00:00,
2013-02-12 09:06:00,46.9,46.1,30.15,ENE,69,0.0,0.0,97,0.00,,,0.00,Wunderground v.1.15,2013-02-12 14:06:00,
2013-02-12 09:12:00,47.0,46.2,30.16,ENE,69,0.0,0.0,97,0.00,,,0.00,Wunderground v.1.15,2013-02-12 14:12:00,
2013-02-12 09:18:00,47.2,46.1,30.16,ENE,69,0.0,0.0,96,0.00,,,0.00,Wunderground v.1.15,2013-02-12 14:18:00,
2013-02-12 09:24:00,47.9,44.2,30.17,ESE,115,0.0,1.0,87,0.00,,,0.00,Wunderground v.1.15,2013-02-12 14:24:00,
2013-02-12 09:30:00,48.7,43.1,30.16,SSE,154,1.0,1.0,81,0.00,,,0.00,Wunderground v.1.15,2013-02-12 14:30:00,
2013-02-12 09:36:00,49.7,40.3,30.15,SW,227,1.0,1.0,70,0.00,,,0.00,Wunderground v.1.15,2013-02-12 14:36:00,
2013-02-12 09:42:00,50.5,40.3,30.16,WSW,253,1.0,1.0,68,0.00,,,0.00,Wunderground v.1.15,2013-02-12 14:42:00,
2013-02-12 09:48:00,51.0,40.8,30.16,WSW,250,0.0,1.0,68,0.00,,,0.00,Wunderground v.1.15,2013-02-12 14:48:00,
2013-02-12 09:54:00,51.6,39.0,30.16,SE,128,1.0,2.0,62,0.00,,,0.00,Wunderground v.1.15,2013-02-12 14:54:00,
2013-02-12 10:00:00,52.1,40.3,30.17,ENE,70,1.0,1.0,64,0.00,,,0.00,Wunderground v.1.15,2013-02-12 15:00:00,
2013-02-12 10:06:00,52.7,39.2,30.17,ENE,72,0.0,1.0,60,0.00,,,0.00,Wunderground v.1.15,2013-02-12 15:06:00,
2013-02-12 10:12:00,53.7,38.8,30.16,East,97,1.0,1.0,57,0.00,,,0.00,Wunderground v.1.15,2013-02-12 15:12:00,
2013-02-12 10:18:00,54.8,38.0,30.15,West,281,1.0,1.0,53,0.00,,,0.00,Wunderground v.1.15,2013-02-12 15:18:00,
2013-02-12 10:24:00,55.2,38.4,30.15,SW,223,1.0,1.0,53,0.00,,,0.00,Wunderground v.1.15,2013-02-12 15:24:00,
2013-02-12 10:30:00,55.5,38.6,30.16,SSW,200,1.0,1.0,53,0.00,,,0.00,Wunderground v.1.15,2013-02-12 15:30:00,
2013-02-12 10:36:00,55.6,38.2,30.16,ENE,72,1.0,3.0,52,0.00,,,0.00,Wunderground v.1.15,2013-02-12 15:36:00,
2013-02-12 10:42:00,55.9,37.5,30.15,SSE,153,1.0,3.0,50,0.00,,,0.00,Wunderground v.1.15,2013-02-12 15:42:00,
2013-02-12 10:48:00,56.4,37.5,30.15,SSE,149,1.0,3.0,49,0.00,,,0.00,Wunderground v.1.15,2013-02-12 15:48:00,
2013-02-12 10:54:00,57.0,38.5,30.14,West,267,1.0,1.0,50,0.00,,,0.00,Wunderground v.1.15,2013-02-12 15:54:00,
2013-02-12 11:00:00,57.4,37.9,30.13,West,262,1.0,2.0,48,0.00,,,0.00,Wunderground v.1.15,2013-02-12 16:00:00,
2013-02-12 11:06:00,58.2,35.8,30.13,NE,43,1.0,2.0,43,0.00,,,0.00,Wunderground v.1.15,2013-02-12 16:06:00,
2013-02-12 11:12:00,58.6,35.6,30.14,SW,217,1.0,2.0,42,0.00,,,0.00,Wunderground v.1.15,2013-02-12 16:12:00,
2013-02-12 11:18:00,59.0,34.7,30.13,SE,137,2.0,5.0,40,0.00,,,0.00,Wunderground v.1.15,2013-02-12 16:18:00,
2013-02-12 11:24:00,59.5,37.0,30.14,ENE,62,1.0,2.0,43,0.00,,,0.00,Wunderground v.1.15,2013-02-12 16:24:00,
2013-02-12 11:30:00,60.2,34.5,30.13,SE,133,1.0,1.0,38,0.00,,,0.00,Wunderground v.1.15,2013-02-12 16:30:00,
2013-02-12 11:36:00,60.5,33.4,30.13,SW,214,1.0,1.0,36,0.00,,,0.00,Wunderground v.1.15,2013-02-12 16:36:00,
2013-02-12 11:42:00,60.7,33.6,30.12,South,186,1.0,2.0,36,0.00,,,0.00,Wunderground v.1.15,2013-02-12 16:42:00,
2013-02-12 11:48:00,60.9,31.6,30.11,South,178,2.0,2.0,33,0.00,,,0.00,Wunderground v.1.15,2013-02-12 16:48:00,
2013-02-12 11:54:00,61.5,35.6,30.11,East,94,1.0,2.0,38,0.00,,,0.00,Wunderground v.1.15,2013-02-12 16:54:00,
2013-02-12 12:00:00,61.8,33.1,30.12,NE,42,1.0,3.0,34,0.00,,,0.00,Wunderground v.1.15,2013-02-12 17:00:00,
2013-02-12 12:06:00,61.4,32.0,30.12,NE,39,2.0,3.0,33,0.00,,,0.00,Wunderground v.1.15,2013-02-12 17:06:00,
2013-02-12 12:12:00,61.4,30.5,30.12,NNE,29,1.0,2.0,31,0.00,,,0.00,Wunderground v.1.15,2013-02-12 17:12:00,
2013-02-12 12:18:00,61.4,31.3,30.12,ENE,62,1.0,4.0,32,0.00,,,0.00,Wunderground v.1.15,2013-02-12 17:18:00,
2013-02-12 12:24:00,61.6,32.9,30.11,WNW,297,1.0,2.0,34,0.00,,,0.00,Wunderground v.1.15,2013-02-12 17:24:00,
2013-02-12 12:30:00,61.8,30.0,30.11,ENE,65,1.0,3.0,30,0.00,,,0.00,Wunderground v.1.15,2013-02-12 17:30:00,
2013-02-12 12:36:00,61.6,30.6,30.10,NE,52,1.0,3.0,31,0.00,,,0.00,Wunderground v.1.15,2013-02-12 17:36:00,
2013-02-12 12:42:00,62.0,33.3,30.10,NE,35,1.0,4.0,34,0.00,,,0.00,Wunderground v.1.15,2013-02-12 17:42:00,
2013-02-12 12:48:00,61.5,31.3,30.08,NE,37,2.0,4.0,32,0.00,,,0.00,Wunderground v.1.15,2013-02-12 17:48:00,
2013-02-12 12:54:00,61.4,32.0,30.08,ESE,114,1.0,3.0,33,0.00,,,0.00,Wunderground v.1.15,2013-02-12 17:54:00,
2013-02-12 13:00:00,61.8,30.8,30.08,SE,133,0.0,0.0,31,0.00,,,0.00,Wunderground v.1.15,2013-02-12 18:00:00,
2013-02-12 13:06:00,61.9,30.9,30.07,SSE,147,0.0,1.0,31,0.00,,,0.00,Wunderground v.1.15,2013-02-12 18:06:00,
2013-02-12 13:12:00,61.9,29.3,30.07,East,94,1.0,1.0,29,0.00,,,0.00,Wunderground v.1.15,2013-02-12 18:12:00,
2013-02-12 13:18:00,61.7,29.9,30.07,WSW,242,1.0,1.0,30,0.00,,,0.00,Wunderground v.1.15,2013-02-12 18:18:00,
2013-02-12 13:24:00,61.5,29.7,30.07,WSW,256,1.0,1.0,30,0.00,,,0.00,Wunderground v.1.15,2013-02-12 18:24:00,
2013-02-12 13:30:00,61.6,30.6,30.07,WSW,256,0.0,2.0,31,0.00,,,0.00,Wunderground v.1.15,2013-02-12 18:30:00,
2013-02-12 13:36:00,61.6,31.4,30.07,NW,312,1.0,2.0,32,0.00,,,0.00,Wunderground v.1.15,2013-02-12 18:36:00,
2013-02-12 13:42:00,61.8,32.4,30.07,NNW,347,1.0,1.0,33,0.00,,,0.00,Wunderground v.1.15,2013-02-12 18:42:00,
2013-02-12 13:48:00,61.9,31.7,30.07,NW,310,1.0,1.0,32,0.00,,,0.00,Wunderground v.1.15,2013-02-12 18:48:00,
2013-02-12 13:54:00,62.2,34.9,30.07,NNW,345,1.0,1.0,36,0.00,,,0.00,Wunderground v.1.15,2013-02-12 18:54:00,
2013-02-12 14:00:00,62.5,31.4,30.07,WNW,291,0.0,0.0,31,0.00,,,0.00,Wunderground v.1.15,2013-02-12 19:00:00,
2013-02-12 14:06:00,62.6,33.1,30.07,East,81,1.0,3.0,33,0.00,,,0.00,Wunderground v.1.15,2013-02-12 19:06:00,
2013-02-12 14:12:00,62.5,34.5,30.06,ENE,61,1.0,1.0,35,0.00,,,0.00,Wunderground v.1.15,2013-02-12 19:12:00,
2013-02-12 14:18:00,62.4,32.9,30.06,NNW,345,1.0,1.0,33,0.00,,,0.00,Wunderground v.1.15,2013-02-12 19:18:00,
2013-02-12 14:24:00,62.3,32.0,30.06,East,86,1.0,3.0,32,0.00,,,0.00,Wunderground v.1.15,2013-02-12 19:24:00,
2013-02-12 14:30:00,62.3,37.0,30.07,NE,35,1.0,1.0,39,0.00,,,0.00,Wunderground v.1.15,2013-02-12 19:30:00,
2013-02-12 14:36:00,62.1,37.5,30.06,NE,52,1.0,1.0,40,0.00,,,0.00,Wunderground v.1.15,2013-02-12 19:36:00,
2013-02-12 14:42:00,62.2,33.5,30.07,WNW,283,1.0,1.0,34,0.00,,,0.00,Wunderground v.1.15,2013-02-12 19:42:00,
2013-02-12 14:48:00,62.2,34.9,30.07,NW,326,1.0,2.0,36,0.00,,,0.00,Wunderground v.1.15,2013-02-12 19:48:00,
2013-02-12 14:54:00,62.1,34.8,30.06,North,350,1.0,3.0,36,0.00,,,0.00,Wunderground v.1.15,2013-02-12 19:54:00,
2013-02-12 15:00:00,62.0,34.7,30.05,North,349,1.0,1.0,36,0.00,,,0.00,Wunderground v.1.15,2013-02-12 20:00:00,
2013-02-12 15:06:00,61.9,34.6,30.05,NNW,345,1.0,1.0,36,0.00,,,0.00,Wunderground v.1.15,2013-02-12 20:06:00,
2013-02-12 15:12:00,61.9,32.5,30.05,NE,39,1.0,1.0,33,0.00,,,0.00,Wunderground v.1.15,2013-02-12 20:12:00,
2013-02-12 15:18:00,62.0,31.8,30.05,NE,51,0.0,1.0,32,0.00,,,0.00,Wunderground v.1.15,2013-02-12 20:18:00,
2013-02-12 15:24:00,62.1,35.5,30.04,North,7,0.0,1.0,37,0.00,,,0.00,Wunderground v.1.15,2013-02-12 20:24:00,
2013-02-12 15:30:00,62.0,34.0,30.03,NE,56,0.0,2.0,35,0.00,,,0.00,Wunderground v.1.15,2013-02-12 20:30:00,
2013-02-12 15:36:00,61.9,32.5,30.03,ESE,102,0.0,2.0,33,0.00,,,0.00,Wunderground v.1.15,2013-02-12 20:36:00,
2013-02-12 15:42:00,61.7,33.7,30.04,NW,326,0.0,1.0,35,0.00,,,0.00,Wunderground v.1.15,2013-02-12 20:42:00,
2013-02-12 15:48:00,61.5,34.3,30.04,NE,38,1.0,1.0,36,0.00,,,0.00,Wunderground v.1.15,2013-02-12 20:48:00,
2013-02-12 15:54:00,61.2,33.3,30.04,NNE,33,1.0,2.0,35,0.00,,,0.00,Wunderground v.1.15,2013-02-12 20:54:00,
2013-02-12 16:00:00,60.9,33.7,30.05,NNE,16,1.0,1.0,36,0.00,,,0.00,Wunderground v.1.15,2013-02-12 21:00:00,
2013-02-12 16:06:00,60.6,36.1,30.05,NNW,328,1.0,2.0,40,0.00,,,0.00,Wunderground v.1.15,2013-02-12 21:06:00,
2013-02-12 16:12:00,60.5,33.4,30.04,NW,322,0.0,0.0,36,0.00,,,0.00,Wunderground v.1.15,2013-02-12 21:12:00,
2013-02-12 16:18:00,60.4,35.3,30.04,NW,322,0.0,0.0,39,0.00,,,0.00,Wunderground v.1.15,2013-02-12 21:18:00,
2013-02-12 16:24:00,60.3,35.9,30.05,NW,322,0.0,0.0,40,0.00,,,0.00,Wunderground v.1.15,2013-02-12 21:24:00,
2013-02-12 16:30:00,60.2,33.8,30.05,NW,322,0.0,0.0,37,0.00,,,0.00,Wunderground v.1.15,2013-02-12 21:30:00,
2013-02-12 16:36:00,60.2,33.8,30.05,NE,34,0.0,1.0,37,0.00,,,0.00,Wunderground v.1.15,2013-02-12 21:36:00,
2013-02-12 16:42:00,60.0,32.9,30.05,ENE,67,0.0,2.0,36,0.00,,,0.00,Wunderground v.1.15,2013-02-12 21:42:00,
2013-02-12 16:48:00,59.9,34.9,30.04,ENE,67,0.0,2.0,39,0.00,,,0.00,Wunderground v.1.15,2013-02-12 21:48:00,
2013-02-12 16:54:00,59.7,34.0,30.04,ENE,67,0.0,0.0,38,0.00,,,0.00,Wunderground v.1.15,2013-02-12 21:54:00,
2013-02-12 17:00:00,59.5,31.8,30.04,East,97,0.0,1.0,35,0.00,,,0.00,Wunderground v.1.15,2013-02-12 22:00:00,
2013-02-12 17:06:00,59.3,32.3,30.03,East,98,0.0,1.0,36,0.00,,,0.00,Wunderground v.1.15,2013-02-12 22:06:00,
2013-02-12 17:12:00,59.0,33.4,30.04,East,98,0.0,0.0,38,0.00,,,0.00,Wunderground v.1.15,2013-02-12 22:12:00,
2013-02-12 17:18:00,58.8,32.6,30.04,East,98,0.0,0.0,37,0.00,,,0.00,Wunderground v.1.15,2013-02-12 22:18:00,
2013-02-12 17:24:00,58.5,33.0,30.04,ENE,72,0.0,1.0,38,0.00,,,0.00,Wunderground v.1.15,2013-02-12 22:24:00,
2013-02-12 17:30:00,58.3,32.1,30.04,ENE,72,0.0,0.0,37,0.00,,,0.00,Wunderground v.1.15,2013-02-12 22:30:00,
2013-02-12 17:36:00,58.2,33.3,30.04,ENE,72,0.0,0.0,39,0.00,,,0.00,Wunderground v.1.15,2013-02-12 22:36:00,
2013-02-12 17:42:00,58.0,33.2,30.03,ENE,72,0.0,0.0,39,0.00,,,0.00,Wunderground v.1.15,2013-02-12 22:42:00,
2013-02-12 17:48:00,57.7,34.7,30.03,ENE,72,0.0,0.0,42,0.00,,,0.00,Wunderground v.1.15,2013-02-12 22:48:00,
2013-02-12 17:54:00,57.5,34.0,30.03,ENE,72,0.0,0.0,41,0.00,,,0.00,Wunderground v.1.15,2013-02-12 22:54:00,
2013-02-12 18:00:00,57.2,34.3,30.03,ENE,72,0.0,0.0,42,0.00,,,0.00,Wunderground v.1.15,2013-02-12 23:00:00,
2013-02-12 18:06:00,56.8,35.7,30.03,ENE,72,0.0,0.0,45,0.00,,,0.00,Wunderground v.1.15,2013-02-12 23:06:00,
2013-02-12 18:12:00,56.5,36.5,30.02,ENE,72,0.0,0.0,47,0.00,,,0.00,Wunderground v.1.15,2013-02-12 23:12:00,
2013-02-12 18:18:00,56.1,37.2,30.02,ENE,72,0.0,0.0,49,0.00,,,0.00,Wunderground v.1.15,2013-02-12 23:18:00,
2013-02-12 18:24:00,55.7,37.3,30.02,ENE,72,0.0,0.0,50,0.00,,,0.00,Wunderground v.1.15,2013-02-12 23:24:00,
2013-02-12 18:30:00,55.3,38.0,30.02,ENE,72,0.0,0.0,52,0.00,,,0.00,Wunderground v.1.15,2013-02-12 23:30:00,
2013-02-12 18:36:00,55.0,37.7,30.01,ENE,72,0.0,0.0,52,0.00,,,0.00,Wunderground v.1.15,2013-02-12 23:36:00,
2013-02-12 18:42:00,54.8,37.5,30.01,ENE,72,0.0,0.0,52,0.00,,,0.00,Wunderground v.1.15,2013-02-12 23:42:00,
2013-02-12 18:48:00,54.6,39.2,30.00,ENE,72,0.0,0.0,56,0.00,,,0.00,Wunderground v.1.15,2013-02-12 23:48:00,
2013-02-12 18:54:00,54.4,39.9,30.00,ENE,72,0.0,0.0,58,0.00,,,0.00,Wunderground v.1.15,2013-02-12 23:54:00,
2013-02-12 19:00:00,54.2,40.2,29.98,ENE,72,0.0,0.0,59,0.00,,,0.00,Wunderground v.1.15,2013-02-13 00:00:00,
2013-02-12 19:06:00,54.0,40.0,29.99,ENE,72,0.0,0.0,59,0.00,,,0.00,Wunderground v.1.15,2013-02-13 00:06:00,
2013-02-12 19:12:00,53.7,39.7,29.98,ENE,72,0.0,0.0,59,0.00,,,0.00,Wunderground v.1.15,2013-02-13 00:12:00,
2013-02-12 19:18:00,53.6,40.9,29.98,ENE,72,0.0,0.0,62,0.00,,,0.00,Wunderground v.1.15,2013-02-13 00:18:00,
2013-02-12 19:24:00,53.4,38.5,29.98,ENE,72,0.0,0.0,57,0.00,,,0.00,Wunderground v.1.15,2013-02-13 00:24:00,
2013-02-12 19:30:00,53.3,38.4,29.98,ENE,72,0.0,0.0,57,0.00,,,0.00,Wunderground v.1.15,2013-02-13 00:30:00,
2013-02-12 19:36:00,53.3,37.5,30.00,ENE,72,0.0,0.0,55,0.00,,,0.00,Wunderground v.1.15,2013-02-13 00:36:00,
2013-02-12 19:42:00,53.4,41.1,30.02,ENE,72,0.0,0.0,63,0.00,,,0.00,Wunderground v.1.15,2013-02-13 00:42:00,
2013-02-12 19:48:00,53.3,39.8,30.03,ENE,72,0.0,0.0,60,0.00,,,0.00,Wunderground v.1.15,2013-02-13 00:48:00,
2013-02-12 19:54:00,53.3,39.3,30.04,ENE,72,0.0,0.0,59,0.00,,,0.00,Wunderground v.1.15,2013-02-13 00:54:00,
2013-02-12 20:00:00,53.2,39.2,30.04,ENE,72,0.0,0.0,59,0.00,,,0.00,Wunderground v.1.15,2013-02-13 01:00:00,
2013-02-12 20:06:00,53.1,40.8,30.04,ENE,72,0.0,0.0,63,0.00,,,0.00,Wunderground v.1.15,2013-02-13 01:06:00,
2013-02-12 20:12:00,52.9,41.0,30.04,ENE,72,0.0,0.0,64,0.00,,,0.00,Wunderground v.1.15,2013-02-13 01:12:00,
2013-02-12 20:18:00,52.7,43.2,30.04,ENE,72,0.0,0.0,70,0.00,,,0.00,Wunderground v.1.15,2013-02-13 01:18:00,
2013-02-12 20:24:00,52.5,41.9,30.04,ENE,72,0.0,0.0,67,0.00,,,0.00,Wunderground v.1.15,2013-02-13 01:24:00,
2013-02-12 20:30:00,52.3,41.3,30.03,ENE,72,0.0,0.0,66,0.00,,,0.00,Wunderground v.1.15,2013-02-13 01:30:00,
2013-02-12 20:36:00,52.2,42.7,30.02,ENE,72,0.0,0.0,70,0.00,,,0.00,Wunderground v.1.15,2013-02-13 01:36:00,
2013-02-12 20:42:00,52.0,41.8,30.02,SE,126,0.0,0.0,68,0.00,,,0.00,Wunderground v.1.15,2013-02-13 01:42:00,
2013-02-12 20:48:00,52.1,43.3,30.03,SE,126,0.0,0.0,72,0.00,,,0.00,Wunderground v.1.15,2013-02-13 01:48:00,
2013-02-12 20:54:00,51.9,43.5,30.03,SE,126,0.0,0.0,73,0.00,,,0.00,Wunderground v.1.15,2013-02-13 01:54:00,
2013-02-12 21:00:00,51.7,44.7,30.05,SE,126,0.0,0.0,77,0.00,,,0.00,Wunderground v.1.15,2013-02-13 02:00:00,
2013-02-12 21:06:00,51.5,43.5,30.05,SE,126,0.0,0.0,74,0.00,,,0.00,Wunderground v.1.15,2013-02-13 02:06:00,
2013-02-12 21:12:00,51.3,44.7,30.04,SE,126,0.0,0.0,78,0.00,,,0.00,Wunderground v.1.15,2013-02-13 02:12:00,
2013-02-12 21:18:00,51.0,44.4,30.04,SE,126,0.0,0.0,78,0.00,,,0.00,Wunderground v.1.15,2013-02-13 02:18:00,
2013-02-12 21:24:00,50.9,43.9,30.04,SE,126,0.0,0.0,77,0.00,,,0.00,Wunderground v.1.15,2013-02-13 02:24:00,
2013-02-12 21:30:00,50.9,43.6,30.03,SE,126,0.0,0.0,76,0.00,,,0.00,Wunderground v.1.15,2013-02-13 02:30:00,
2013-02-12 21:36:00,51.0,44.4,30.03,SE,126,0.0,0.0,78,0.00,,,0.00,Wunderground v.1.15,2013-02-13 02:36:00,
2013-02-12 21:42:00,51.0,44.7,30.04,SE,126,0.0,0.0,79,0.00,,,0.00,Wunderground v.1.15,2013-02-13 02:42:00,
2013-02-12 21:48:00,50.8,45.2,30.02,SE,126,0.0,0.0,81,0.00,,,0.00,Wunderground v.1.15,2013-02-13 02:48:00,
2013-02-12 21:54:00,50.7,45.4,30.02,SE,126,0.0,0.0,82,0.00,,,0.00,Wunderground v.1.15,2013-02-13 02:54:00,
2013-02-12 22:00:00,50.4,45.4,30.04,SE,126,0.0,0.0,83,0.00,,,0.01,Wunderground v.1.15,2013-02-13 03:00:00,
2013-02-12 22:06:00,50.1,45.8,30.05,SE,126,0.0,0.0,85,0.00,,,0.01,Wunderground v.1.15,2013-02-13 03:06:00,
2013-02-12 22:12:00,49.8,46.1,30.04,South,188,0.0,1.0,87,0.00,,,0.01,Wunderground v.1.15,2013-02-13 03:12:00,
2013-02-12 22:18:00,49.5,46.1,30.04,South,189,0.0,1.0,88,0.00,,,0.01,Wunderground v.1.15,2013-02-13 03:18:00,
2013-02-12 22:24:00,49.3,46.2,30.04,South,189,0.0,0.0,89,0.00,,,0.01,Wunderground v.1.15,2013-02-13 03:24:00,
2013-02-12 22:30:00,49.2,46.4,30.05,South,189,0.0,0.0,90,0.00,,,0.01,Wunderground v.1.15,2013-02-13 03:30:00,
2013-02-12 22:36:00,49.1,46.0,30.05,South,189,0.0,0.0,89,0.00,,,0.01,Wunderground v.1.15,2013-02-13 03:36:00,
2013-02-12 22:42:00,49.0,45.9,30.03,South,189,0.0,0.0,89,0.00,,,0.02,Wunderground v.1.15,2013-02-13 03:42:00,
2013-02-12 22:48:00,48.9,46.1,30.02,South,189,0.0,0.0,90,0.00,,,0.02,Wunderground v.1.15,2013-02-13 03:48:00,
2013-02-12 22:54:00,48.8,46.0,30.02,South,189,0.0,0.0,90,0.00,,,0.02,Wunderground v.1.15,2013-02-13 03:54:00,
2013-02-12 23:00:00,48.7,46.2,30.01,South,189,0.0,0.0,91,0.00,,,0.02,Wunderground v.1.15,2013-02-13 04:00:00,
2013-02-12 23:06:00,48.5,46.0,30.01,South,189,0.0,0.0,91,0.00,,,0.03,Wunderground v.1.15,2013-02-13 04:06:00,
2013-02-12 23:12:00,48.4,45.9,30.01,South,189,0.0,0.0,91,0.00,,,0.03,Wunderground v.1.15,2013-02-13 04:12:00,
2013-02-12 23:18:00,48.3,46.1,30.00,South,189,0.0,0.0,92,0.00,,,0.03,Wunderground v.1.15,2013-02-13 04:18:00,
2013-02-12 23:24:00,48.2,46.0,30.01,South,189,0.0,0.0,92,0.00,,,0.04,Wunderground v.1.15,2013-02-13 04:24:00,
2013-02-12 23:30:00,48.2,46.3,30.01,South,172,0.0,0.0,93,0.00,,,0.04,Wunderground v.1.15,2013-02-13 04:30:00,
2013-02-12 23:36:00,48.2,46.3,29.98,WSW,247,0.0,2.0,93,0.00,,,0.04,Wunderground v.1.15,2013-02-13 04:36:00,
2013-02-12 23:42:00,48.0,45.8,30.00,NE,56,1.0,1.0,92,0.00,,,0.04,Wunderground v.1.15,2013-02-13 04:42:00,
2013-02-12 23:48:00,47.9,45.7,30.00,NE,56,0.0,1.0,92,0.00,,,0.04,Wunderground v.1.15,2013-02-13 04:48:00,
2013-02-12 23:54:00,47.8,45.6,30.01,NE,56,0.0,1.0,92,0.00,,,0.04,Wunderground v.1.15,2013-02-13 04:54:00,